Probability
43 42 40 37 34 30 28 28 27 26 26 26 26 23 19 17 19 19 17 17 17 17 14 13 15 16 15 15 16 13 11 10 12 13 11 9 12 14 13 12 12 12 11
45 44 44 43 39 34 31 30 31 31 30 29 28 25 20 17 19 19 17 17 17 16 14 13 13 13 12 12 13 13 11 11 12 13 11 12 14 15 15 14 12 11 11
49 48 49 49 45 41 37 35 36 36 34 31 30 26 21 19 20 19 18 18 17 15 13 13 13 12 12 10 10 11 10 10 12 11 10 13 17 17 17 15 14 13 12
54 54 53 52 51 48 44 41 39 37 34 32 30 25 21 20 20 20 20 19 17 15 15 15 14 13 13 11 9 9 9 11 12 10 8 11 15 18 20 18 16 15 13
58 57 56 56 55 53 49 46 42 37 33 32 30 25 20 17 17 19 20 20 20 19 19 17 15 12 11 9 7 7 9 11 13 11 8 8 10 15 18 16 14 13 12
57 57 57 57 56 54 53 51 47 41 37 34 32 28 22 17 13 14 19 22 24 25 24 22 17 14 12 8 5 4 5 7 10 10 9 10 11 12 13 12 10 9 9
56 55 55 55 53 52 52 51 49 45 40 36 33 31 28 21 13 10 15 23 28 29 29 26 22 18 15 12 8 5 5 5 6 7 9 12 14 14 13 12 11 10 9
54 52 52 51 49 48 48 48 47 45 41 36 33 31 30 25 16 9 12 23 30 31 31 29 25 20 15 12 11 10 10 9 6 6 8 11 13 13 13 14 15 14 14
49 48 48 47 45 45 46 46 47 45 42 37 32 30 30 27 18 10 12 23 31 31 30 27 23 18 14 11 11 12 13 12 9 7 7 8 10 10 10 13 15 16 15
46 45 45 45 44 44 45 45 46 45 41 36 32 30 29 25 18 10 11 20 27 28 26 22 16 12 10 8 8 10 11 11 10 8 7 7 8 8 8 11 13 14 14
44 43 43 43 43 42 41 42 44 42 38 33 29 27 26 24 16 8 6 12 19 22 21 16 11 6 3 3 4 6 8 8 9 9 9 9 9 10 10 12 14 14 13
42 42 42 42 40 37 36 36 38 37 33 30 27 24 24 23 17 8 4 5 10 14 14 11 8 4 1 0 1 3 4 5 6 8 9 11 12 12 13 14 15 15 14
40 39 39 38 35 30 27 25 25 26 25 23 22 21 22 22 18 10 5 2 4 8 8 6 5 2 1 0 0 1 2 3 4 6 9 11 13 13 13 13 13 14 14
34 33 30 28 26 22 17 13 12 14 15 16 16 16 19 20 17 11 7 4 3 4 5 4 3 2 1 1 1 2 3 3 4 6 9 11 12 13 12 11 11 12 13
26 24 20 18 17 14 10 7 5 6 8 10 11 12 14 15 13 9 6 5 4 4 4 4 3 3 2 3 3 4 5 5 5 6 8 10 10 10 10 10 10 10 12
19 16 12 10 9 9 7 4 3 3 4 5 6 7 8 9 7 5 4 3 3 3 4 6 6 5 5 5 6 7 7 6 6 6 7 7 7 7 8 9 9 8 9
13 11 7 5 5 5 4 2 1 2 3 3 2 2 3 3 2 2 2 1 1 2 4 6 8 7 7 7 7 6 6 6 6 6 6 5 5 4 5 6 7 7 7
10 7 4 3 3 3 2 1 0 1 3 3 1 1 0 0 0 1 1 1 2 2 4 6 7 7 7 7 6 5 4 5 5 4 4 3 3 4 4 5 6 6 5
7 5 2 2 1 1 1 0 0 0 1 2 3 2 1 0 0 0 1 2 3 4 6 7 7 7 6 6 5 4 4 4 4 3 2 1 2 3 4 5 5 5 4
7 4 3 3 2 1 2 1 1 0 0 2 3 3 1 1 1 1 2 3 4 5 6 7 8 7 6 6 5 4 4 4 3 3 2 1 1 2 3 3 4 4 4
7 5 4 4 4 3 3 3 2 1 0 1 2 3 2 2 2 2 2 3 3 3 4 5 5 5 5 5 4 3 3 3 3 3 3 3 2 2 2 2 3 3 3
7 6 5 5 6 5 4 3 3 2 1 0 1 2 2 2 2 1 1 1 1 2 2 2 2 2 2 2 2 2 2 2 2 3 4 4 3 2 2 2 3 3 3
6 6 5 6 6 6 4 3 3 3 2 1 1 2 2 2 2 0 0 1 2 3 3 2 1 0 0 0 0 1 1 1 1 1 2 2 2 1 1 2 2 2 2
6 6 5 6 6 6 5 4 3 2 3 3 3 3 3 3 2 1 0 1 3 4 3 2 2 1 0 0 0 0 0 0 0 0 0 0 0 0 0 1 1 1 1
6 5 4 5 6 6 5 4 3 3 3 4 5 5 4 4 3 1 1 3 4 3 2 1 2 1 0 0 0 0 0 0 0 0 0 0 0 0 0 0 0 0 0
4 4 4 4 4 4 4 4 3 3 2 4 6 6 6 5 3 2 2 3 4 3 1 0 1 1 0 0 0 0 0 0 0 0 0 0 0 0 0 0 0 0 0
Wind_Speed
8 7 6 6 6 5 3 3 2 2 2 2 2 2 2 2 3 3 3 2 3 3 3 3 3 3 2 2 2 2 2 2 3 2 2 2 1 2 2 3 3 3 5
7 7 6 6 6 6 4 4 3 2 2 2 2 2 3 3 3 3 3 3 3 3 3 2 3 3 3 3 2 3 3 3 3 4 2 2 2 2 3 3 3 3 3
7 7 7 6 6 5 5 4 4 3 3 3 3 3 3 3 3 3 3 3 3 3 3 3 3 3 3 3 3 3 3 3 2 3 3 2 2 3 2 3 4 2 3
6 6 6 6 6 5 5 4 4 4 3 3 3 3 3 3 3 3 3 3 3 3 3 3 3 3 3 4 4 3 3 3 3 3 3 2 2 3 2 2 2 2 3
5 5 5 5 5 5 5 5 4 4 4 3 3 3 3 3 3 2 2 3 3 3 3 3 3 4 4 4 4 3 3 3 3 3 3 2 2 2 2 2 3 2 2
6 5 5 5 4 4 5 5 4 4 3 3 3 3 4 3 2 2 2 2 2 3 3 3 4 4 4 5 5 4 4 4 3 3 3 3 3 3 2 3 2 2 2
5 4 4 4 4 4 5 4 4 4 4 3 3 3 3 2 2 1 2 2 3 3 3 3 5 4 3 2 4 6 6 7 6 4 4 4 4 3 3 3 3 4 4
4 4 3 4 4 3 3 3 3 3 3 3 4 3 3 3 3 2 2 3 4 4 4 4 3 2 2 2 4 4 4 4 5 5 5 5 4 3 4 5 4 3 3
5 4 4 4 3 3 4 3 3 3 3 4 3 3 3 2 2 2 2 3 3 4 4 3 2 2 1 2 3 3 4 4 5 5 6 6 6 6 4 3 2 2 3
3 3 3 3 3 3 3 3 2 2 3 3 2 2 2 2 2 1 2 3 3 3 2 2 2 2 1 1 3 3 4 4 4 4 4 5 5 5 6 4 3 3 3
2 2 3 3 3 3 2 2 2 2 2 2 1 1 1 2 2 2 2 2 3 3 3 2 1 1 2 3 4 4 6 5 4 4 3 3 3 3 3 4 4 4 3
2 2 2 2 1 2 2 1 2 2 2 2 2 2 1 1 2 2 3 4 4 3 3 2 1 2 3 4 5 5 6 5 3 3 3 3 3 3 3 4 5 5 4
2 2 2 2 1 2 2 1 1 2 2 2 2 2 2 1 2 2 1 3 4 3 2 2 3 4 4 4 6 6 5 3 3 3 3 3 3 2 2 2 3 4 4
2 2 2 2 2 2 1 1 1 1 1 1 1 1 1 1 1 0 1 2 3 3 3 3 4 5 4 4 3 4 4 4 3 3 2 2 2 1 2 2 2 2 2
2 2 2 2 2 2 1 0 1 1 1 0 1 1 1 0 0 1 1 2 2 2 2 2 2 2 2 2 2 2 3 2 3 3 2 2 2 1 2 2 2 2 2
2 2 1 1 2 2 2 1 3 2 3 2 1 1 0 1 1 0 1 3 3 2 2 3 2 2 2 2 2 2 2 2 2 2 2 2 2 2 2 2 1 2 2
1 1 1 1 2 2 2 2 2 1 2 1 1 1 2 2 1 1 1 3 3 1 2 3 2 2 2 2 1 1 1 1 1 1 2 2 2 2 2 2 2 2 3
1 2 1 1 1 1 2 2 2 2 1 1 1 3 3 3 2 2 0 2 2 0 1 2 2 2 1 1 1 1 1 1 1 1 2 2 2 3 3 3 2 3 3
0 1 0 0 1 1 2 2 2 2 2 2 2 1 2 2 2 2 1 1 1 1 1 2 2 2 2 2 2 2 2 1 2 2 2 2 3 3 3 3 3 4 4
1 1 1 1 1 1 1 1 1 1 1 1 2 2 1 1 1 0 1 1 1 1 1 2 2 2 2 2 2 2 2 2 2 2 2 3 3 3 4 4 4 3 3
1 1 0 1 0 0 1 0 0 0 1 1 2 2 2 1 1 1 1 1 1 1 2 2 2 2 2 3 2 2 3 2 2 2 2 3 3 3 3 4 4 4 4
1 1 0 1 1 1 1 1 1 1 1 1 1 3 3 1 1 1 1 1 1 1 1 2 2 2 2 2 2 3 3 4 3 4 4 4 4 4 4 4 4 4 4
2 1 1 1 0 1 0 1 1 1 2 1 1 1 2 1 0 1 1 1 1 1 1 1 2 2 2 2 2 2 3 3 3 4 4 4 4 4 4 4 5 5 5
1 1 1 1 0 0 1 1 1 2 2 2 1 1 1 1 1 1 1 1 1 1 2 2 1 2 3 2 2 3 3 4 4 4 5 5 5 4 4 4 4 5 5
1 1 1 1 0 1 0 1 1 1 1 2 2 1 1 1 1 1 1 1 1 1 1 1 1 2 3 5 4 4 4 5 4 5 5 5 5 5 5 5 5 5 4
1 1 0 0 1 0 0 1 1 1 1 1 1 1 1 1 2 2 2 2 2 2 2 1 2 3 4 3 4 4 4 5 6 6 5 5 5 5 5 4 6 5 5
Wind_Direction
179 182 183 177 180 183 198 188 196 211 209 194 189 190 200 216 214 214 225 221 228 235 236 221 229 253 274 271 257 252 251 246 254 262 250 231 225 213 217 225 219 208 202
176 175 178 173 175 180 186 186 192 195 204 207 200 202 213 214 216 214 229 225 228 237 239 240 238 241 251 272 277 266 258 245 236 252 257 253 253 222 209 223 228 225 205
174 175 176 178 179 182 183 180 186 191 202 209 211 210 216 216 211 222 227 227 222 234 233 236 241 246 242 257 265 268 270 267 246 247 256 245 248 236 218 234 240 231 234
175 179 180 185 185 182 181 178 181 184 193 203 208 215 216 213 211 214 226 232 230 236 239 239 240 243 243 253 255 260 271 276 265 253 253 252 251 241 216 229 244 228 234
173 181 182 183 179 179 179 179 183 189 197 197 203 212 219 221 229 223 231 236 239 242 239 237 238 236 237 243 256 257 264 268 265 258 255 261 269 263 241 243 251 245 238
176 183 176 179 183 185 185 182 184 190 198 196 205 216 220 227 222 220 230 251 251 248 249 244 240 232 231 230 243 252 250 250 259 263 263 260 261 265 261 253 247 254 258
171 172 169 175 185 190 195 190 192 194 200 206 213 220 210 199 190 188 232 242 251 252 253 251 257 245 222 241 249 249 247 245 239 244 259 261 255 251 253 262 252 244 248
164 165 167 176 187 187 193 195 198 197 202 210 217 217 201 206 189 198 241 240 252 253 254 249 245 276 279 279 270 260 255 249 238 236 245 257 261 250 237 243 250 255 243
174 175 180 183 185 190 195 199 201 202 209 218 215 208 213 211 178 189 251 248 249 254 257 260 238 227 286 309 274 270 270 272 254 246 244 249 247 250 247 249 250 244 259
173 175 181 187 191 196 194 193 200 208 220 226 221 208 204 193 169 180 258 257 258 260 252 238 241 218 239 254 262 264 264 271 280 267 255 249 239 233 224 220 229 239 251
155 163 168 169 184 183 175 180 193 208 215 212 218 206 199 193 184 205 232 260 275 269 255 246 242 234 248 244 252 256 259 270 274 264 246 242 238 225 211 208 209 219 235
123 132 134 143 181 163 148 175 199 204 200 197 196 207 218 202 191 204 230 245 271 277 274 273 247 252 257 251 249 257 265 269 265 260 249 244 238 230 222 218 215 216 221
109 122 137 152 152 152 161 172 197 203 213 214 204 215 217 196 168 177 225 269 277 270 282 289 274 255 251 245 243 251 253 249 249 254 253 249 244 236 233 231 227 213 221
136 149 159 166 166 145 150 179 179 205 191 225 250 240 217 195 145 215 266 267 272 270 278 284 274 251 249 254 253 245 238 239 241 249 262 269 262 247 234 239 238 224 230
146 159 172 171 146 126 120 70 115 68 65 37 298 300 279 234 342 284 273 275 266 261 275 265 258 253 246 243 241 237 232 232 242 250 254 268 267 263 254 237 235 243 238
139 147 161 164 140 139 130 82 59 107 115 116 149 171 43 152 172 48 329 318 296 260 241 260 264 258 252 251 253 245 237 246 252 251 253 260 263 265 265 262 251 249 252
123 146 183 170 159 163 169 171 156 133 112 112 194 196 196 221 242 264 313 324 314 270 239 263 278 280 266 271 280 296 296 288 273 270 267 267 270 271 267 264 258 255 259
148 143 192 190 184 198 207 211 200 189 169 141 195 213 201 196 217 234 285 2 342 330 279 315 327 320 322 340 346 337 326 323 316 306 302 301 294 285 277 272 265 261 261
123 126 153 221 218 219 231 221 212 206 195 160 147 157 188 186 205 230 182 242 286 314 332 336 346 342 343 359 4 2 350 341 337 323 317 313 306 296 285 277 272 267 260
118 126 243 241 214 220 233 218 208 190 152 131 107 85 102 83 64 97 194 247 291 321 331 348 1 11 0 12 17 11 359 358 352 343 337 319 310 303 295 290 283 277 269
120 117 269 281 277 27 341 332 353 21 51 70 88 92 109 128 101 57 40 37 6 355 354 5 21 27 20 15 8 8 3 356 352 344 332 320 314 308 301 299 295 291 288
122 115 234 9 35 16 2 13 19 61 79 85 100 118 135 133 75 80 51 22 350 354 22 24 20 22 25 23 12 6 357 350 350 346 333 321 312 311 308 300 296 293 289
189 178 141 106 87 95 99 13 13 56 73 77 73 79 118 117 51 46 36 2 357 17 38 45 31 29 31 20 15 16 6 355 339 332 325 317 317 313 305 300 295 292 293
207 171 140 126 42 67 66 36 33 42 49 54 50 51 61 60 37 41 32 19 39 36 36 38 34 32 28 14 24 32 21 356 334 324 318 306 298 292 293 294 296 301 302
203 158 146 137 85 60 49 39 29 28 41 44 42 37 37 26 8 17 5 19 38 31 28 30 26 38 41 43 41 28 14 4 352 336 314 300 293 291 289 290 290 290 290
180 95 72 110 106 95 41 13 18 14 15 38 43 32 25 15 12 17 15 13 7 14 5 14 29 52 49 33 32 33 19 360 347 332 313 301 298 296 298 294 296 296 297